Weather History for Sturgeon Bay, WI

Change the Weather History Date:

Sunday, July 29, 2012

  Actual Average Record
Temperature  
Mean Temperature 71 °F -  
Max Temperature 82 °F 79 °F 99 °F (1916)
Min Temperature 60 °F 58 °F 43 °F (1934)
Cooling Degree Days 6    
Growing Degree Days 21 (Base 50)    
Moisture  
Dew Point 62 °F    
Average Humidity 74    
Maximum Humidity 88    
Minimum Humidity 51    
Precipitation  
Precipitation 0.00 in - - ()
Sea Level Pressure  
Sea Level Pressure 30.04 in    
Wind  
Wind Speed 7 mph (SSW)    
Max Wind Speed 12 mph    
Max Gust Speed -    
Visibility 10 miles    
Events      
Averages and records for this station are not official NWS values.
T = Trace of Precipitation, MM = Missing Value Source: NWS Daily Summary

Daily Weather History Graph

Daily Weather History Graph

Search for Another Location

Airport:

Trip Planner

Search our weather history database for the weather conditions in past years. The results will help you decide how hot, cold, wet, or windy it might be!

Date:

Astronomy

Jul. 29, 2012 Rise Set
Actual Time 5:32 AM CDT 8:18 PM CDT
Civil Twilight 4:58 AM CDT 8:52 PM CDT
Nautical Twilight 4:15 AM CDT 9:35 PM CDT
Astronomical Twilight 3:25 AM CDT 10:25 PM CDT
Moon 5:27 PM CDT (7/29) 1:43 AM CDT (7/29)
Length of Visible Light 15h 53m
Length of Day
14h 46m
Waxing Gibbous, 85% of the Moon is Illuminated
Jul 29
Waxing Gibbous
Aug 1
Full
Aug 9
Last Quarter
Aug 17
New
Aug 24
First Quarter

Hourly Weather History & Observations

Time (CDT) Temp. Heat Index Dew Point Humidity Pressure Visibility Wind Dir Wind Speed Gust Speed Precip Events Conditions
12:15 AM 62.6 °F - 57.2 °F 82% 30.09 in 10.0 mi South 5.8 mph - N/A   Unknown
12:35 AM 62.6 °F - 57.2 °F 82% 30.09 in 10.0 mi South 4.6 mph - N/A   Unknown
12:55 AM 62.6 °F - 57.2 °F 82% 30.09 in 10.0 mi South 5.8 mph - N/A   Unknown
1:15 AM 62.6 °F - 57.2 °F 82% 30.09 in 10.0 mi South 5.8 mph - N/A   Unknown
1:35 AM 62.6 °F - 57.2 °F 82% 30.08 in 10.0 mi South 5.8 mph - N/A   Unknown
1:55 AM 62.6 °F - 57.2 °F 82% 30.08 in 10.0 mi South 5.8 mph - N/A   Unknown
2:15 AM 60.8 °F - 57.2 °F 88% 30.08 in 10.0 mi South 3.5 mph - N/A   Unknown
2:35 AM 62.6 °F - 57.2 °F 82% 30.08 in 10.0 mi SSW 3.5 mph - N/A   Unknown
2:55 AM 60.8 °F - 57.2 °F 88% 30.08 in 10.0 mi South 3.5 mph - N/A   Unknown
3:15 AM 62.6 °F - 57.2 °F 82% 30.08 in 10.0 mi SSW 5.8 mph - N/A   Unknown
3:35 AM 62.6 °F - 59.0 °F 88% 30.08 in 10.0 mi SSW 5.8 mph - N/A   Unknown
3:55 AM 64.4 °F - 57.2 °F 77% 30.07 in 10.0 mi South 5.8 mph - N/A   Unknown
4:15 AM 62.6 °F - 59.0 °F 88% 30.07 in 10.0 mi South 4.6 mph - N/A   Unknown
4:35 AM 62.6 °F - 59.0 °F 88% 30.07 in 10.0 mi SSW 6.9 mph - N/A   Unknown
4:55 AM 62.6 °F - 59.0 °F 88% 30.07 in 10.0 mi SSW 5.8 mph - N/A   Unknown
5:15 AM 64.4 °F - 60.8 °F 88% 30.08 in 10.0 mi SSW 6.9 mph - N/A   Unknown
5:35 AM 64.4 °F - 60.8 °F 88% 30.08 in 10.0 mi South 8.1 mph - N/A   Unknown
5:55 AM 64.4 °F - 60.8 °F 88% 30.08 in 10.0 mi South 6.9 mph - N/A   Unknown
6:15 AM 64.4 °F - 60.8 °F 88% 30.08 in 10.0 mi South 6.9 mph - N/A   Unknown
6:35 AM 64.4 °F - 60.8 °F 88% 30.08 in 10.0 mi South 6.9 mph - N/A   Unknown
6:55 AM 66.2 °F - 60.8 °F 83% 30.09 in 10.0 mi SSW 8.1 mph - N/A   Unknown
7:15 AM 66.2 °F - 60.8 °F 83% 30.09 in 10.0 mi SSW 9.2 mph - N/A   Unknown
7:35 AM 69.8 °F - 60.8 °F 73% 30.09 in 10.0 mi SSW 6.9 mph - N/A   Unknown
7:55 AM 69.8 °F - 60.8 °F 73% 30.09 in 10.0 mi SSW 9.2 mph - N/A   Unknown
8:15 AM 69.8 °F - 60.8 °F 73% 30.09 in 10.0 mi SSW 9.2 mph - N/A   Unknown
8:35 AM 71.6 °F - 62.6 °F 73% 30.09 in 10.0 mi SSW 9.2 mph - N/A   Unknown
8:55 AM 71.6 °F - 62.6 °F 73% 30.08 in 10.0 mi SSW 8.1 mph - N/A   Unknown
9:15 AM 73.4 °F - 62.6 °F 69% 30.07 in 10.0 mi SW 4.6 mph - N/A   Unknown
9:55 AM 75.2 °F - 64.4 °F 69% 30.07 in 10.0 mi WSW 5.8 mph - N/A   Unknown
10:15 AM 75.2 °F - 64.4 °F 69% 30.07 in 10.0 mi SSW 5.8 mph - N/A   Unknown
10:55 AM 78.8 °F - 64.4 °F 61% 30.07 in 10.0 mi West 8.1 mph - N/A   Unknown
11:15 AM 77.0 °F - 64.4 °F 65% 30.07 in 10.0 mi SW 6.9 mph - N/A   Unknown
11:35 AM 78.8 °F - 64.4 °F 61% 30.06 in 10.0 mi WSW 9.2 mph - N/A   Unknown
11:55 AM 78.8 °F - 64.4 °F 61% 30.06 in 10.0 mi SW 8.1 mph - N/A   Unknown
12:15 PM 78.8 °F - 64.4 °F 61% 30.05 in 10.0 mi SW 8.1 mph - N/A   Unknown
12:35 PM 78.8 °F - 64.4 °F 61% 30.05 in 10.0 mi West 5.8 mph - N/A   Unknown
12:55 PM 78.8 °F - 64.4 °F 61% 30.04 in 10.0 mi SW 10.4 mph - N/A   Unknown
1:15 PM 80.6 °F 82.3 °F 64.4 °F 58% 30.04 in 10.0 mi West 5.8 mph - N/A   Unknown
1:35 PM 80.6 °F 81.8 °F 62.6 °F 54% 30.03 in 10.0 mi WSW 10.4 mph - N/A   Unknown
1:55 PM 80.6 °F 81.8 °F 62.6 °F 54% 30.03 in 10.0 mi WSW 9.2 mph - N/A   Unknown
2:15 PM 80.6 °F 81.8 °F 62.6 °F 54% 30.03 in 10.0 mi South 6.9 mph - N/A   Unknown
2:35 PM 80.6 °F 81.8 °F 62.6 °F 54% 30.02 in 10.0 mi SW 10.4 mph - N/A   Unknown
2:55 PM 80.6 °F 81.5 °F 60.8 °F 51% 30.02 in 10.0 mi SSW 9.2 mph - N/A   Unknown
3:15 PM 82.4 °F 83.4 °F 62.6 °F 51% 30.01 in 10.0 mi SSW 10.4 mph - N/A   Unknown
3:35 PM 80.6 °F 81.8 °F 62.6 °F 54% 30.01 in 10.0 mi SSW 6.9 mph - N/A   Unknown
3:55 PM 80.6 °F 81.8 °F 62.6 °F 54% 30.01 in 10.0 mi SSW 9.2 mph - N/A   Unknown
4:15 PM 80.6 °F 81.5 °F 60.8 °F 51% 30.00 in 10.0 mi SW 9.2 mph - N/A   Unknown
4:35 PM 80.6 °F 81.5 °F 60.8 °F 51% 30.00 in 10.0 mi SW 8.1 mph - N/A   Unknown
4:55 PM 78.8 °F - 60.8 °F 54% 30.00 in 10.0 mi South 9.2 mph - N/A   Unknown
5:15 PM 78.8 °F - 66.2 °F 65% 30.00 in 10.0 mi South 8.1 mph - N/A   Unknown
5:35 PM 77.0 °F - 66.2 °F 69% 29.99 in 10.0 mi South 10.4 mph - N/A   Unknown
5:55 PM 77.0 °F - 66.2 °F 69% 30.00 in 10.0 mi South 11.5 mph - N/A   Unknown
6:15 PM 75.2 °F - 64.4 °F 69% 30.00 in 10.0 mi South 8.1 mph - N/A   Unknown
6:35 PM 75.2 °F - 64.4 °F 69% 30.00 in 10.0 mi South 8.1 mph - N/A   Unknown
6:55 PM 75.2 °F - 64.4 °F 69% 29.99 in 10.0 mi South 8.1 mph - N/A   Unknown
7:15 PM 75.2 °F - 64.4 °F 69% 29.98 in 10.0 mi South 6.9 mph - N/A   Unknown
7:35 PM 75.2 °F - 64.4 °F 69% 29.98 in 10.0 mi South 8.1 mph - N/A   Unknown
7:55 PM 73.4 °F - 64.4 °F 73% 29.98 in 10.0 mi South 8.1 mph - N/A   Unknown
8:15 PM 71.6 °F - 66.2 °F 83% 29.98 in 10.0 mi South 6.9 mph - N/A   Unknown
8:35 PM 71.6 °F - 66.2 °F 83% 29.99 in 10.0 mi South 5.8 mph - N/A   Unknown
8:55 PM 69.8 °F - 66.2 °F 88% 29.99 in 10.0 mi South 5.8 mph - N/A   Unknown
9:15 PM 69.8 °F - 66.2 °F 88% 29.99 in 10.0 mi South 6.9 mph - N/A   Unknown
9:35 PM 69.8 °F - 66.2 °F 88% 29.99 in 10.0 mi South 6.9 mph - N/A   Unknown
9:55 PM 69.8 °F - 66.2 °F 88% 29.98 in 10.0 mi South 9.2 mph - N/A   Unknown
10:15 PM 69.8 °F - 66.2 °F 88% 29.98 in 10.0 mi South 5.8 mph - N/A   Unknown
10:35 PM 69.8 °F - 64.4 °F 83% 29.97 in 10.0 mi SSW 6.9 mph - N/A   Unknown
10:55 PM 69.8 °F - 64.4 °F 83% 29.96 in 10.0 mi SSW 8.1 mph - N/A   Unknown
11:15 PM 68.0 °F - 64.4 °F 88% 29.96 in 10.0 mi SSW 6.9 mph - N/A   Unknown
11:35 PM 68.0 °F - 64.4 °F 88% 29.96 in 10.0 mi South 10.4 mph - N/A   Unknown
11:55 PM 68.0 °F - 64.4 °F 88% 29.98 in 10.0 mi SSW 6.9 mph - N/A   Unknown